* Astronomy

Members Login
Username 
 
Password 
    Remember Me  
Post Info TOPIC: Asteroid 2015 KP18


L

Posts: 131433
Date:
Asteroid 2015 KP18
Permalink  
 


Orbital elements:
2015 KP18                                                Earth MOID = 0.0008 AU
Epoch 2016 Jan. 13.0 TT = JDT 2457400.5                 MPC
M  74.76302              (2000.0)            P               Q
n   0.46541177     Peri.   81.29629     +0.94520326     +0.32600441
a   1.6490904      Node   259.67582     -0.30615769     +0.86627423
e   0.5869688      Incl.    1.02863     -0.11339429     +0.37853676
P   2.12           H   23.1           G   0.15           U   4

MPEC 2015 - X166



__________________
Page 1 of 1  sorted by
 
Quick Reply

Please log in to post quick replies.



Create your own FREE Forum
Report Abuse
Powered by ActiveBoard